| time (UTC) | temp F | wind direction | speed MPH | gust MPH | rain 1hr in | rain 24hr in | rain mn in | humidity % | barometer mb |
| 20260506072834 | 63 | 250 | 0.0 | 5.0 | 0.00 | 0.00 | 0.00 | 64 | 1012.2 |
| 20260506071827 | 60 | 169 | 1.0 | 3.0 | 0.00 | 0.00 | 0.00 | 70 | 1012.2 |
| 20260506070836 | 58 | 250 | 0.0 | 1.0 | 0.00 | 0.00 | 0.00 | 77 | 1012.5 |
| 20260506061834 | 60 | 151 | 0.0 | 1.0 | 0.00 | 0.00 | 0.00 | 73 | 1012.9 |
| 20260506060838 | 61 | 151 | 0.0 | 0.0 | 0.00 | 0.00 | 0.00 | 72 | 1012.6 |
| 20260506050844 | 63 | 222 | 0.0 | 4.0 | 0.00 | 0.00 | 0.00 | 65 | 1013.1 |
| 20260506044821 | 64 | 166 | 1.0 | 2.0 | 0.00 | 0.00 | 0.00 | 64 | 1013.7 |
| 20260506043834 | 64 | 165 | 0.0 | 1.0 | 0.00 | 0.00 | 0.00 | 64 | 1013.7 |
| 20260506042827 | 65 | 166 | 0.0 | 1.0 | 0.00 | 0.00 | 0.00 | 61 | 1013.4 |
| 20260506041822 | 66 | 215 | 0.0 | 3.0 | 0.00 | 0.00 | 0.00 | 59 | 1013.4 |
| 20260506040911 | 66 | 206 | 2.0 | 5.0 | 0.00 | 0.00 | 0.00 | 58 | 1013.9 |
| 20260506035829 | 66 | 123 | 1.0 | 5.0 | 0.00 | 0.00 | 0.00 | 59 | 1013.9 |
| 20260506034823 | 67 | 229 | 1.0 | 4.0 | 0.00 | 0.00 | 0.00 | 57 | 1013.9 |
| 20260506033820 | 67 | 192 | 1.0 | 5.0 | 0.00 | 0.00 | 0.00 | 57 | 1014.0 |
| 20260506032835 | 68 | 272 | 0.0 | 7.0 | 0.00 | 0.00 | 0.00 | 55 | 1013.6 |
| 20260506031830 | 68 | 178 | 2.0 | 9.0 | 0.00 | 0.00 | 0.00 | 54 | 1013.6 |
| 20260506030833 | 68 | 139 | 3.0 | 10.0 | 0.00 | 0.00 | 0.00 | 54 | 1014.2 |
| 20260506025836 | 68 | 141 | 4.0 | 10.0 | 0.00 | 0.00 | 0.00 | 54 | 1013.6 |
| 20260506024830 | 67 | 178 | 2.0 | 5.0 | 0.00 | 0.00 | 0.00 | 54 | 1013.6 |
| 20260506023824 | 67 | 211 | 1.0 | 7.0 | 0.00 | 0.00 | 0.00 | 53 | 1013.5 |
| 20260506022822 | 67 | 178 | 1.0 | 7.0 | 0.00 | 0.00 | 0.00 | 54 | 1013.2 |
| 20260506021836 | 67 | 212 | 1.0 | 6.0 | 0.00 | 0.00 | 0.00 | 54 | 1013.2 |
| 20260506020841 | 67 | 78 | 1.0 | 3.0 | 0.00 | 0.00 | 0.00 | 54 | 1013.3 |
| 20260506015840 | 68 | 217 | 0.0 | 5.0 | 0.00 | 0.00 | 0.00 | 53 | 1013.3 |
| 20260506014837 | 68 | 243 | 0.0 | 5.0 | 0.00 | 0.00 | 0.00 | 52 | 1013.3 |
| 20260506013830 | 68 | 200 | 0.0 | 11.0 | 0.00 | 0.00 | 0.00 | 52 | 1013.4 |
| 20260506012823 | 67 | 155 | 1.0 | 3.0 | 0.00 | 0.00 | 0.00 | 52 | 1013.4 |
| 20260506011836 | 68 | 110 | 0.0 | 4.0 | 0.00 | 0.00 | 0.00 | 52 | 1013.4 |
| 20260506010902 | 68 | 240 | 0.0 | 3.0 | 0.00 | 0.00 | 0.00 | 52 | 1013.3 |
| 20260506005818 | 68 | 215 | 0.0 | 4.0 | 0.00 | 0.00 | 0.00 | 52 | 1013.2 |
| 20260506004831 | 69 | 156 | 1.0 | 7.0 | 0.00 | 0.00 | 0.00 | 50 | 1013.2 |
| 20260506003826 | 69 | 211 | 1.0 | 7.0 | 0.00 | 0.00 | 0.00 | 50 | 1013.0 |
| 20260506002844 | 69 | 144 | 0.0 | 2.0 | 0.00 | 0.00 | 0.00 | 49 | 1013.8 |
| 20260506001818 | 70 | 144 | 0.0 | 5.0 | 0.00 | 0.00 | 0.00 | 48 | 1013.8 |
| 20260506000843 | 70 | 144 | 2.0 | 10.0 | 0.00 | 0.00 | 0.00 | 48 | 1013.4 |
| 20260505235828 | 70 | 208 | 1.0 | 6.0 | 0.00 | 0.00 | 0.00 | 47 | 1013.5 |
| 20260505234823 | 70 | 192 | 1.0 | 9.0 | 0.00 | 0.00 | 0.00 | 47 | 1013.5 |
| 20260505233837 | 71 | 190 | 2.0 | 8.0 | 0.00 | 0.00 | 0.00 | 46 | 1013.4 |
| 20260505232851 | 71 | 259 | 2.0 | 8.0 | 0.00 | 0.00 | 0.00 | 46 | 1013.4 |
| 20260505231828 | 71 | 133 | 1.0 | 6.0 | 0.00 | 0.00 | 0.00 | 47 | 1013.4 |
| 20260505230912 | 71 | 209 | 1.0 | 6.0 | 0.00 | 0.00 | 0.00 | 46 | 1013.5 |
| 20260505225831 | 72 | 276 | 1.0 | 7.0 | 0.00 | 0.00 | 0.00 | 46 | 1013.5 |
| 20260505224825 | 72 | 192 | 2.0 | 14.0 | 0.00 | 0.00 | 0.00 | 45 | 1013.5 |
| 20260505223823 | 72 | 296 | 10.0 | 18.0 | 0.00 | 0.00 | 0.00 | 45 | 1013.5 |
| 20260505222857 | 72 | 241 | 6.0 | 17.0 | 0.00 | 0.00 | 0.00 | 44 | 1013.3 |
| 20260505221831 | 73 | 166 | 2.0 | 14.0 | 0.00 | 0.00 | 0.00 | 43 | 1013.3 |
| 20260505220856 | 73 | 162 | 1.0 | 7.0 | 0.00 | 0.00 | 0.00 | 44 | 1013.3 |
| 20260505215818 | 73 | 245 | 1.0 | 15.0 | 0.00 | 0.00 | 0.00 | 43 | 1013.3 |
| 20260505214833 | 73 | 105 | 6.0 | 12.0 | 0.00 | 0.00 | 0.00 | 44 | 1013.3 |
| 20260505213827 | 73 | 215 | 2.0 | 15.0 | 0.00 | 0.00 | 0.00 | 45 | 1013.3 |
| 20260505212825 | 73 | 237 | 5.0 | 17.0 | 0.00 | 0.00 | 0.00 | 45 | 1013.3 |
| 20260505211819 | 73 | 105 | 5.0 | 12.0 | 0.00 | 0.00 | 0.00 | 44 | 1013.3 |
| 20260505210843 | 73 | 218 | 8.0 | 16.0 | 0.00 | 0.00 | 0.00 | 44 | 1013.2 |
| 20260505205824 | 73 | 148 | 9.0 | 19.0 | 0.00 | 0.00 | 0.00 | 45 | 1013.5 |
| 20260505204822 | 72 | 142 | 3.0 | 15.0 | 0.00 | 0.00 | 0.00 | 45 | 1013.5 |
| 20260505203836 | 73 | 131 | 9.0 | 20.0 | 0.00 | 0.00 | 0.00 | 44 | 1013.5 |
| 20260505202850 | 73 | 205 | 2.0 | 10.0 | 0.00 | 0.00 | 0.00 | 46 | 1013.6 |
| 20260505201844 | 72 | 279 | 3.0 | 14.0 | 0.00 | 0.00 | 0.00 | 44 | 1013.6 |
| 20260505200912 | 73 | 112 | 5.0 | 14.0 | 0.00 | 0.00 | 0.00 | 43 | 1013.4 |
| 20260505195831 | 74 | 150 | 4.0 | 16.0 | 0.00 | 0.00 | 0.00 | 42 | 1013.4 |
| 20260505194824 | 74 | 168 | 6.0 | 13.0 | 0.00 | 0.00 | 0.00 | 41 | 1013.4 |
| 20260505193818 | 75 | 271 | 3.0 | 10.0 | 0.00 | 0.00 | 0.00 | 41 | 1013.2 |
| 20260505192837 | 75 | 268 | 2.0 | 9.0 | 0.00 | 0.00 | 0.00 | 42 | 1013.6 |
| 20260505191832 | 74 | 165 | 5.0 | 15.0 | 0.00 | 0.00 | 0.00 | 43 | 1013.6 |
| 20260505190837 | 75 | 215 | 5.0 | 15.0 | 0.00 | 0.00 | 0.00 | 42 | 1014.6 |
| 20260505185820 | 75 | 287 | 3.0 | 10.0 | 0.00 | 0.00 | 0.00 | 44 | 1014.4 |
| 20260505184834 | 74 | 177 | 4.0 | 13.0 | 0.00 | 0.00 | 0.00 | 45 | 1014.4 |
| 20260505183828 | 74 | 133 | 5.0 | 15.0 | 0.00 | 0.00 | 0.00 | 45 | 1014.4 |
| 20260505182823 | 74 | 54 | 4.0 | 17.0 | 0.00 | 0.00 | 0.00 | 44 | 1014.6 |
| 20260505181821 | 75 | 302 | 5.0 | 13.0 | 0.00 | 0.00 | 0.00 | 42 | 1014.6 |
| 20260505180846 | 75 | 168 | 3.0 | 13.0 | 0.00 | 0.00 | 0.00 | 42 | 1014.6 |
| 20260505175825 | 74 | 118 | 1.0 | 11.0 | 0.00 | 0.00 | 0.00 | 43 | 1014.8 |
| 20260505174824 | 76 | 121 | 2.0 | 7.0 | 0.00 | 0.00 | 0.00 | 39 | 1014.8 |
| 20260505173857 | 77 | 121 | 3.0 | 8.0 | 0.00 | 0.00 | 0.00 | 40 | 1015.0 |
| 20260505172830 | 76 | 180 | 2.0 | 10.0 | 0.00 | 0.00 | 0.00 | 41 | 1015.0 |
| 20260505171825 | 76 | 355 | 2.0 | 7.0 | 0.00 | 0.00 | 0.00 | 40 | 1015.0 |
| 20260505170834 | 76 | 89 | 2.0 | 5.0 | 0.00 | 0.00 | 0.00 | 42 | 1015.3 |
| 20260505165833 | 76 | 168 | 1.0 | 7.0 | 0.00 | 0.00 | 0.00 | 44 | 1014.6 |
| 20260505164827 | 73 | 145 | 3.0 | 16.0 | 0.00 | 0.00 | 0.00 | 45 | 1014.6 |
| 20260505163821 | 73 | 123 | 1.0 | 5.0 | 0.00 | 0.00 | 0.00 | 44 | 1014.7 |
| 20260505162856 | 72 | 84 | 1.0 | 5.0 | 0.00 | 0.00 | 0.00 | 47 | 1015.0 |
| 20260505161829 | 72 | 140 | 1.0 | 4.0 | 0.00 | 0.00 | 0.00 | 47 | 1015.0 |
| 20260505160834 | 72 | 360 | 2.0 | 3.0 | 0.00 | 0.00 | 0.00 | 49 | 1015.2 |
| 20260505152837 | 70 | 138 | 1.0 | 9.0 | 0.00 | 0.00 | 0.00 | 47 | 1015.9 |
| 20260505151834 | 69 | 143 | 1.0 | 5.0 | 0.00 | 0.00 | 0.00 | 48 | 1015.9 |
| 20260505150839 | 69 | 110 | 0.0 | 5.0 | 0.00 | 0.00 | 0.00 | 49 | 1016.1 |
| 20260505124832 | 53 | 221 | 0.0 | 0.0 | 0.00 | 0.00 | 0.00 | 85 | 1016.0 |
| 20260505123826 | 52 | 221 | 0.0 | 1.0 | 0.00 | 0.00 | 0.00 | 84 | 1016.2 |
| 20260505122820 | 50 | 221 | 0.0 | 0.0 | 0.00 | 0.00 | 0.00 | 88 | 1016.5 |
| 20260505121838 | 48 | 221 | 0.0 | 0.0 | 0.00 | 0.00 | 0.00 | 91 | 1016.5 |
| 20260505120843 | 46 | 221 | 0.0 | 0.0 | 0.00 | 0.00 | 0.00 | 93 | 1016.3 |
| 20260505115824 | 45 | 221 | 0.0 | 0.0 | 0.00 | 0.00 | 0.00 | 94 | 1016.1 |
| 20260505114857 | 44 | 221 | 0.0 | 0.0 | 0.00 | 0.00 | 0.00 | 93 | 1016.1 |
| 20260505113835 | 43 | 221 | 0.0 | 0.0 | 0.00 | 0.00 | 0.00 | 93 | 1016.1 |
| 20260505112828 | 43 | 221 | 0.0 | 0.0 | 0.00 | 0.00 | 0.00 | 93 | 1016.0 |
| 20260505111822 | 43 | 221 | 0.0 | 0.0 | 0.00 | 0.00 | 0.00 | 93 | 1016.0 |
| 20260505110851 | 43 | 222 | 0.0 | 0.0 | 0.00 | 0.00 | 0.00 | 92 | 1015.9 |
| 20260505101831 | 43 | 222 | 0.0 | 0.0 | 0.00 | 0.00 | 0.00 | 92 | 1015.8 |
| 20260505100836 | 43 | 221 | 0.0 | 0.0 | 0.00 | 0.00 | 0.00 | 92 | 1015.5 |
| 20260505095820 | 44 | 221 | 0.0 | 0.0 | 0.00 | 0.00 | 0.00 | 91 | 1015.3 |
| 20260505094835 | 44 | 221 | 0.0 | 0.0 | 0.00 | 0.00 | 0.00 | 91 | 1015.3 |
| 20260505093829 | 44 | 221 | 0.0 | 0.0 | 0.00 | 0.00 | 0.00 | 91 | 1015.2 |
| 20260505092824 | 44 | 221 | 0.0 | 0.0 | 0.00 | 0.00 | 0.00 | 91 | 1015.1 |
| 20260505091822 | 45 | 222 | 0.0 | 0.0 | 0.00 | 0.00 | 0.00 | 90 | 1015.1 |
| 20260505090847 | 45 | 229 | 0.0 | 1.0 | 0.00 | 0.00 | 0.00 | 89 | 1014.9 |
| 20260505085827 | 45 | 233 | 1.0 | 3.0 | 0.00 | 0.00 | 0.00 | 89 | 1014.7 |
| 20260505084825 | 45 | 150 | 0.0 | 0.0 | 0.00 | 0.00 | 0.00 | 89 | 1014.7 |
| 20260505083820 | 46 | 150 | 0.0 | 0.0 | 0.00 | 0.00 | 0.00 | 89 | 1014.7 |
| 20260505082834 | 46 | 150 | 0.0 | 0.0 | 0.00 | 0.00 | 0.00 | 88 | 1014.7 |
| 20260505081828 | 46 | 150 | 0.0 | 0.0 | 0.00 | 0.00 | 0.00 | 88 | 1014.7 |
| 20260505080838 | 47 | 150 | 0.0 | 0.0 | 0.00 | 0.00 | 0.00 | 87 | 1014.5 |
| 20260505075818 | 47 | 150 | 0.0 | 0.0 | 0.00 | 0.00 | 0.00 | 87 | 1015.1 |
| 20260505074853 | 48 | 149 | 0.0 | 0.0 | 0.00 | 0.00 | 0.00 | 86 | 1015.1 |